KA2FNK Weather Reports


Display with metric or nautical units.
time (UTC)temp
F
wind
direction
speed
MPH
gust
MPH
rain 1hr
in
rain 24hr
in
rain mn
in
humidity
%
barometer
mb
20260503040937 51 255 0.0 0.0 0.00 0.00 0.00 60 1017.7
20260503040703 51 255 0.0 0.0 0.00 0.00 0.00 60 1017.7
20260503040202 51 255 0.0 0.0 0.00 0.00 0.00 60 1017.6
20260503035701 51 255 0.0 0.0 0.00 0.00 0.00 60 1017.6
20260503035412 51 255 0.0 0.0 0.00 0.00 0.00 61 1017.7
20260503035200 51 255 0.0 0.0 0.00 0.00 0.00 61 1017.7
20260503034659 51 255 0.0 0.0 0.00 0.00 0.00 60 1017.7
20260503034158 51 255 0.0 0.0 0.00 0.00 0.00 61 1017.7
20260503033657 51 255 0.0 0.0 0.00 0.00 0.00 60 1017.8
20260503033156 51 255 0.0 0.0 0.00 0.00 0.00 60 1018.0
20260503032958 51 255 0.0 0.0 0.00 0.00 0.00 60 1018.1
20260503032655 51 255 0.0 0.0 0.00 0.00 0.00 60 1018.1
20260503032258 51 255 0.0 0.0 0.00 0.00 0.00 60 1018.0
20260503032154 51 255 0.0 0.0 0.00 0.00 0.00 60 1018.0
20260503031653 52 255 0.0 0.0 0.00 0.00 0.00 59 1018.1
20260503031152 52 255 0.0 0.0 0.00 0.00 0.00 60 1018.1
20260503031143 52 255 0.0 0.0 0.00 0.00 0.00 60 1018.0
20260503030651 52 255 0.0 0.0 0.00 0.00 0.00 60 1018.0
20260503030150 52 255 0.0 0.0 0.00 0.00 0.00 60 1018.0
20260503025649 52 255 0.0 0.0 0.00 0.00 0.00 60 1018.1
20260503025148 52 255 0.0 0.0 0.00 0.00 0.00 59 1018.1
20260503024647 52 255 0.0 0.0 0.00 0.00 0.00 60 1018.1
20260503024146 52 255 0.0 0.0 0.00 0.00 0.00 59 1018.1
20260503023645 52 255 0.0 0.0 0.00 0.00 0.00 59 1018.1
20260503023144 53 255 0.0 0.0 0.00 0.00 0.00 58 1018.2
20260503022644 53 255 0.0 0.0 0.00 0.00 0.00 57 1018.2
20260503022142 53 255 0.0 0.0 0.00 0.00 0.00 56 1018.2
20260503021641 53 255 0.0 0.0 0.00 0.00 0.00 57 1018.1
20260503021140 54 255 0.0 0.0 0.00 0.00 0.00 56 1018.2
20260503020639 54 255 0.0 0.0 0.00 0.00 0.00 55 1018.1
20260503020138 54 255 0.0 0.0 0.00 0.00 0.00 55 1018.2
20260503015637 55 255 0.0 0.0 0.00 0.00 0.00 54 1018.2
20260503015136 55 255 0.0 0.0 0.00 0.00 0.00 53 1018.1
20260503014635 55 255 0.0 0.0 0.00 0.00 0.00 53 1018.0
20260503014134 56 255 0.0 0.0 0.00 0.00 0.00 52 1018.0
20260503013633 56 255 0.0 0.0 0.00 0.00 0.00 51 1018.0
20260503013132 56 255 0.0 0.0 0.00 0.00 0.00 49 1017.8
20260503012631 57 255 0.0 0.0 0.00 0.00 0.00 48 1018.0
20260503012130 57 255 0.0 0.0 0.00 0.00 0.00 47 1018.0
20260503011629 58 255 0.0 0.0 0.00 0.00 0.00 46 1018.0
20260503011128 58 255 0.0 0.0 0.00 0.00 0.00 46 1018.0
20260503010627 59 255 0.0 0.0 0.00 0.00 0.00 45 1018.0
20260503010126 59 255 0.0 0.0 0.00 0.00 0.00 44 1018.0
20260503005625 59 255 0.0 0.0 0.00 0.00 0.00 43 1018.0
20260503005124 60 255 0.0 0.0 0.00 0.00 0.00 42 1018.1
20260503004623 60 255 0.0 0.0 0.00 0.00 0.00 42 1018.1
20260503004122 60 255 0.0 0.0 0.00 0.00 0.00 42 1018.1
20260503003621 61 255 0.0 0.0 0.00 0.00 0.00 41 1018.1
20260503003120 61 255 0.0 0.0 0.00 0.00 0.00 39 1018.1
20260503002619 61 255 0.0 0.0 0.00 0.00 0.00 39 1018.1
20260503002118 61 255 0.0 0.0 0.00 0.00 0.00 39 1018.2
20260503001617 61 255 0.0 0.0 0.00 0.00 0.00 40 1018.2
20260503001116 62 255 0.0 0.0 0.00 0.00 0.00 39 1018.2
20260503000615 62 255 0.0 0.0 0.00 0.00 0.00 38 1018.2
20260503000114 62 255 0.0 0.0 0.00 0.00 0.00 38 1018.2
20260502235614 62 255 0.0 0.0 0.00 0.00 0.00 40 1018.2
20260502235113 62 255 0.0 0.0 0.00 0.00 0.00 40 1018.3
20260502234612 61 255 0.0 0.0 0.00 0.00 0.00 40 1018.2
20260502234110 61 255 0.0 0.0 0.00 0.00 0.00 40 1018.3
20260502233609 61 255 0.0 0.0 0.00 0.00 0.00 40 1018.2
20260502233109 61 255 0.0 0.0 0.00 0.00 0.00 38 1018.3
20260502232607 61 255 0.0 0.0 0.00 0.00 0.00 40 1018.3
20260502232107 61 255 0.0 0.0 0.00 0.00 0.00 39 1018.3
20260502231605 61 255 0.0 0.0 0.00 0.00 0.00 40 1018.4
20260502231104 62 255 0.0 0.0 0.00 0.00 0.00 37 1018.5
20260502230604 62 255 0.0 0.0 0.00 0.00 0.00 38 1018.5
20260502225601 62 255 0.0 0.0 0.00 0.00 0.00 38 1018.5
20260502225100 63 255 0.0 0.0 0.00 0.00 0.00 35 1018.5
20260502224559 63 255 0.0 0.0 0.00 0.00 0.00 36 1018.5
20260502224058 63 255 0.0 0.0 0.00 0.00 0.00 35 1018.5
20260502223557 63 255 0.0 0.0 0.00 0.00 0.00 36 1018.5
20260502223056 63 255 0.0 0.0 0.00 0.00 0.00 39 1018.5
20260502222555 63 255 0.0 0.0 0.00 0.00 0.00 36 1018.6
20260502222054 63 255 0.0 0.0 0.00 0.00 0.00 38 1018.6
20260502221554 62 255 0.0 3.0 0.00 0.00 0.00 34 1018.7
20260502221053 62 279 0.0 2.0 0.00 0.00 0.00 1018.7
20260502220551 62 341 0.0 0.0 0.00 0.00 0.00 39 1018.8
20260502220050 62 341 0.0 0.0 0.00 0.00 0.00 37 1018.8
20260502215549 62 341 0.0 7.0 0.00 0.00 0.00 39 1018.9
20260502215048 62 8 0.0 5.0 0.00 0.00 0.00 37 1019.0
20260502214548 62 307 0.0 0.0 0.00 0.00 0.00 35 1018.9
20260502214046 62 307 0.0 0.0 0.00 0.00 0.00 34 1019.0
20260502213545 61 307 0.0 5.0 0.00 0.00 0.00 39 1019.1
20260502213044 61 59 5.0 5.0 0.00 0.00 0.00 41 1019.1
20260502212544 61 341 0.0 0.0 0.00 0.00 0.00 39 1019.1
20260502212042 61 341 0.0 0.0 0.00 0.00 0.00 39 1019.1
20260502211541 61 341 0.0 0.0 0.00 0.00 0.00 39 1019.1
20260502211040 61 341 0.0 6.0 0.00 0.00 0.00 37 1019.2
20260502210539 62 319 0.0 2.0 0.00 0.00 0.00 40 1019.3
20260502210038 62 322 0.0 7.0 0.00 0.00 0.00 35 1019.3
20260502205537 63 215 0.0 0.0 0.00 0.00 0.00 37 1019.4
20260502205036 63 215 0.0 0.0 0.00 0.00 0.00 38 1019.4
20260502204536 62 215 0.0 0.0 0.00 0.00 0.00 39 1019.5
20260502204034 62 215 0.0 0.0 0.00 0.00 0.00 38 1019.5
20260502203534 62 215 0.0 0.0 0.00 0.00 0.00 38 1019.6
20260502203032 62 215 0.0 0.0 0.00 0.00 0.00 39 1019.7
20260502202531 62 215 0.0 0.0 0.00 0.00 0.00 40 1019.7
20260502202030 62 215 0.0 0.0 0.00 0.00 0.00 42 1019.7
20260502201529 62 215 0.0 0.0 0.00 0.00 0.00 40 1019.7
20260502201029 62 215 0.0 0.0 0.00 0.00 0.00 38 1019.8
20260502200528 62 215 0.0 0.0 0.00 0.00 0.00 38 1019.7
20260502200027 61 282 0.0 5.0 0.00 0.00 0.00 40 1019.8
20260502195525 61 177 0.0 2.0 0.00 0.00 0.00 42 1019.8
20260502195024 61 324 0.0 0.0 0.00 0.00 0.00 40 1019.9
20260502194524 61 324 0.0 3.0 0.00 0.00 0.00 42 1020.0
20260502194022 61 227 0.0 6.0 0.00 0.00 0.00 39 1020.0
20260502193522 60 254 0.0 5.0 0.00 0.00 0.00 41 1020.0
20260502193021 60 331 0.0 0.0 0.00 0.00 0.00 41 1020.1
20260502192519 60 331 0.0 0.0 0.00 0.00 0.00 42 1020.2
20260502192018 60 331 0.0 0.0 0.00 0.00 0.00 43 1020.2
20260502191517 60 331 0.0 0.0 0.00 0.00 0.00 38 1020.2
20260502191016 60 331 0.0 0.0 0.00 0.00 0.00 40 1020.3
20260502190515 60 331 0.0 0.0 0.00 0.00 0.00 45 1020.4
20260502190014 59 54 4.0 8.0 0.00 0.00 0.00 45 1020.3
20260502185514 59 350 0.0 3.0 0.00 0.00 0.00 40 1020.4
20260502185012 59 331 0.0 0.0 0.00 0.00 0.00 45 1020.6
20260502184512 58 331 0.0 9.0 0.00 0.00 0.00 46 1020.5
20260502184011 59 33 0.0 9.0 0.00 0.00 0.00 45 1020.8
20260502183509 59 326 0.0 7.0 0.00 0.00 0.00 42 1020.9
20260502183008 58 327 0.0 0.0 0.00 0.00 0.00 42 1020.9
20260502182508 58 324 3.0 12.0 0.00 0.00 0.00 40 1020.9
20260502182006 59 316 0.0 6.0 0.00 0.00 0.00 41 1020.9
20260502181505 59 293 1.0 5.0 0.00 0.00 0.00 43 1020.9
20260502181004 59 8 6.0 6.0 0.00 0.00 0.00 43 1021.1
20260502180503 59 341 0.0 0.0 0.00 0.00 0.00 45 1021.0
20260502170451 57 80 0.0 2.0 0.00 0.00 0.00 46 1021.5
20260502163946 56 39 4.0 6.0 0.00 0.00 0.00 47 1021.6
20260502163445 57 337 0.0 10.0 0.00 0.00 0.00 49 1021.6
20260502162944 57 21 0.0 4.0 0.00 0.00 0.00 49 1021.6
20260502162443 57 352 0.0 3.0 0.00 0.00 0.00 50 1021.6
20260502161943 56 226 0.0 1.0 0.00 0.00 0.00 50 1021.6
20260502161441 55 4 0.0 1.0 0.00 0.00 0.00 49 1021.7
20260502160940 55 4 0.0 0.0 0.00 0.00 0.00 50 1021.7
20260502160439 55 4 0.0 7.0 0.00 0.00 0.00 50 1021.8
20260502151930 54 75 0.0 4.0 0.00 0.00 0.00 58 1021.5
20260502151429 54 4 0.0 7.0 0.00 0.00 0.00 57 1021.7
20260502150928 53 63 1.0 5.0 0.00 0.00 0.00 59 1021.7
20260502150427 53 45 3.0 9.0 0.00 0.00 0.00 58 1021.8
20260502130403 44 333 0.0 0.0 0.00 0.00 0.00 73 1021.1
20260502123357 43 327 0.0 2.0 0.00 0.00 0.00 75 1020.9
20260502122856 43 9 0.0 0.0 0.00 0.00 0.00 75 1020.8
20260502122355 43 9 0.0 0.0 0.00 0.00 0.00 75 1020.8
20260502121854 43 9 0.0 0.0 0.00 0.00 0.00 75 1020.6
20260502121353 42 9 0.0 0.0 0.00 0.00 0.00 75 1020.6
20260502120852 42 9 0.0 0.0 0.00 0.00 0.00 76 1020.5
20260502120351 42 9 0.0 0.0 0.00 0.00 0.00 75 1020.5
20260502115850 42 9 0.0 1.0 0.00 0.00 0.00 75 1020.4
20260502115349 42 9 0.0 0.0 0.00 0.00 0.00 75 1020.3
20260502114848 42 9 0.0 0.0 0.00 0.00 0.00 75 1020.2
20260502114347 42 9 0.0 0.0 0.00 0.00 0.00 75 1020.2
20260502113846 42 9 0.0 0.0 0.00 0.00 0.00 75 1020.1
20260502113345 42 9 0.0 0.0 0.00 0.00 0.00 75 1020.1
20260502112844 42 9 0.0 0.0 0.00 0.00 0.00 75 1020.0
20260502112343 42 9 0.0 0.0 0.00 0.00 0.00 75 1020.0
20260502111842 42 9 0.0 0.0 0.00 0.00 0.00 74 1019.9
20260502111341 42 9 0.0 0.0 0.00 0.00 0.00 74 1019.9
20260502110840 42 9 0.0 0.0 0.00 0.00 0.00 73 1020.0
20260502110339 42 9 0.0 0.0 0.00 0.00 0.00 73 1019.9
20260502105838 42 9 0.0 0.0 0.00 0.00 0.00 73 1019.9
20260502105337 42 9 0.0 0.0 0.00 0.00 0.00 73 1019.9
20260502104836 42 9 0.0 0.0 0.00 0.00 0.00 72 1019.9
20260502104335 42 9 0.0 0.0 0.00 0.00 0.00 72 1020.0
20260502103834 42 9 0.0 0.0 0.00 0.00 0.00 72 1019.9
20260502103333 42 9 0.0 0.0 0.00 0.00 0.00 71 1019.8
20260502102832 42 9 0.0 0.0 0.00 0.00 0.00 72 1019.8
20260502102331 42 9 0.0 0.0 0.00 0.00 0.00 72 1019.8
20260502101830 43 9 0.0 0.0 0.00 0.00 0.00 72 1019.8
20260502101329 43 9 0.0 0.0 0.00 0.00 0.00 72 1019.6
20260502100828 43 9 0.0 0.0 0.00 0.00 0.00 72 1019.6
20260502100327 43 9 0.0 0.0 0.00 0.00 0.00 69 1019.6
20260502091317 44 9 0.0 0.0 0.00 0.00 0.00 67 1019.3
20260502090816 44 9 0.0 0.0 0.00 0.00 0.00 67 1019.3
20260502090315 44 9 0.0 0.0 0.00 0.00 0.00 66 1019.3
20260502071253 46 360 0.0 3.0 0.00 0.00 0.00 60 1019.1
20260502070752 46 9 0.0 0.0 0.00 0.00 0.00 61 1019.1
20260502070251 47 9 0.0 0.0 0.00 0.00 0.00 61 1019.1
20260502065750 47 9 0.0 0.0 0.00 0.00 0.00 61 1019.2
20260502065249 47 9 0.0 0.0 0.00 0.00 0.00 61 1019.1
20260502064748 47 9 0.0 0.0 0.00 0.00 0.00 61 1019.1
20260502064247 47 9 0.0 0.0 0.00 0.00 0.00 60 1019.1
20260502063746 47 9 0.0 0.0 0.00 0.00 0.00 60 1019.1
20260502063245 47 9 0.0 0.0 0.00 0.00 0.00 60 1019.2
20260502062744 47 9 0.0 0.0 0.00 0.00 0.00 60 1019.2
20260502062243 47 9 0.0 0.0 0.00 0.00 0.00 59 1019.1
20260502061742 47 9 0.0 0.0 0.00 0.00 0.00 60 1019.2
20260502061241 48 9 0.0 0.0 0.00 0.00 0.00 59 1019.2
20260502060740 48 9 0.0 0.0 0.00 0.00 0.00 58 1019.2
20260502060239 48 9 0.0 0.0 0.00 0.00 0.00 59 1019.2
20260502055738 48 9 0.0 0.0 0.00 0.00 0.00 60 1019.2
20260502055237 48 9 0.0 0.0 0.00 0.00 0.00 60 1019.2
20260502054736 48 9 0.0 0.0 0.00 0.00 0.00 60 1019.2
20260502054235 48 9 0.0 0.0 0.00 0.00 0.00 59 1019.2
20260502053734 48 9 0.0 1.0 0.00 0.00 0.00 59 1019.2
20260502053233 48 358 0.0 0.0 0.00 0.00 0.00 60 1019.1
20260502052732 49 358 0.0 3.0 0.00 0.00 0.00 59 1019.2
20260502052231 49 357 0.0 4.0 0.00 0.00 0.00 58 1019.1
20260502051730 49 7 0.0 2.0 0.00 0.00 0.00 59 1019.2
20260502051229 49 1 0.0 0.0 0.00 0.00 0.00 59 1019.1
20260502050728 49 1 0.0 6.0 0.00 0.00 0.00 55 1019.1
20260502050227 50 28 0.0 0.0 0.00 0.00 0.00 60 1019.2
20260502045726 49 28 0.0 0.0 0.00 0.00 0.00 51 1019.1
20260502045225 49 28 0.0 0.0 0.00 0.00 0.00 52 1019.1
20260502044724 50 28 0.0 0.0 0.00 0.00 0.00 57 1019.1
20260502044223 50 28 0.0 0.0 0.00 0.00 0.00 57 1019.0
20260502043722 51 28 0.0 2.0 0.00 0.00 0.00 57 1019.0
20260502043221 51 355 0.0 5.0 0.00 0.00 0.00 57 1019.0
20260502042720 51 12 0.0 3.0 0.00 0.00 0.00 56 1018.9
20260502042219 51 22 0.0 4.0 0.00 0.00 0.00 56 1018.9
20260502041718 51 354 0.0 0.0 0.00 0.00 0.00 57 1019.0
20260502041217 51 354 0.0 0.0 0.00 0.00 0.00 57 1018.9